Regional Weather Roundup
Issued by NWS

Home | Current Version | Previous Version | Graphics & Text | Print | Product List | Glossary Off
Versions: 1 2 3 4 5 6 7 8 9 10 11 12 13 14 15 16 17 18 19 20 21 22 23 24 25 26 27 28 29 30 31 32 33 34 35 36 37 38 39 40 41 42 43 44 45 46 47 48 49 50

000
ASUS43 KTOP 312159
RWRKS

WEATHER ROUNDUP FOR KANSAS
NATIONAL WEATHER SERVICE GOODLAND KS
400 PM CST SAT JAN 31 2015

NOTE:  "FAIR" INDICATES FEW OR NO CLOUDS BELOW 12,000 FEET WITH NO
SIGNIFICANT WEATHER AND/OR OBSTRUCTIONS TO VISIBILITY.

KSZ001>006-013>018-027>032-041>047-312300-
NORTHWEST KANSAS

CITY           SKY/WX    TMP DP  RH WIND       PRES   REMARKS
GOODLAND       CLOUDY    36  34  92 N12       29.79S WCI  28
HAYS           CLOUDY    39  32  75 S13       29.84F WCI  32
HILL CITY      CLOUDY    40  37  89 S7        29.82F
RUSSELL        LGT RAIN  39  38  96 S13       29.84F WCI  31
$$

KSZ061>065-074>080-084>089-312300-
SOUTHWEST KANSAS

CITY           SKY/WX    TMP DP  RH WIND       PRES   REMARKS
DODGE CITY     LGT RAIN  39  36  89 S16       29.82F WCI  30
ELKHART          N/A     44  34  68 SW10        N/A
GARDEN CITY    CLOUDY    40  38  93 S14       29.78F WCI  32
LIBERAL        CLOUDY    43  36  75 SW15      29.83F
$$

KSZ066>073-081>083-090>101-312300-
SOUTHEAST KANSAS

CITY           SKY/WX    TMP DP  RH WIND       PRES   REMARKS
CHANUTE        LGT RAIN  39  36  89 SE10      30.00F WCI  32
COFFEYVILLE    LGT RAIN  42  34  73 SE12      30.03F
HUTCHINSON     LGT RAIN  40  37  89 S17       29.89F FOG     WCI  31
MEDICINE LODGE   N/A     40  39  97 S12       29.88F WCI  33
NEWTON         CLOUDY    39  34  81 S14       29.93F WCI  31
PARSONS        LGT RAIN  42  35  76 SE6       30.03F
WICHITA INTL   CLOUDY    40  38  93 SE16      29.92F FOG     WCI  31
WICHITA JABRA  LGT RAIN  39  39 100 S14       29.93F WCI  31
WINFIELD       LGT RAIN  39  31  72 SE14      29.98F WCI  31
$$

KSZ007>012-019>026-033>040-048>060-102>105-312300-
NORTHEAST KANSAS

CITY           SKY/WX    TMP DP  RH WIND       PRES   REMARKS
CONCORDIA      LGT SNOW  33  33 100 SE14      29.90F FOG     WCI  23
EMPORIA        LGT RAIN  37  37 100 S12       29.98F FOG     WCI  29
LAWRENCE       LGT RAIN  35  34  96 SE8       30.03F FOG
MANHATTAN      LGT RAIN  36  35  96 E7        29.95F FOG
OLATHE IND     LGT RAIN  36  35  96 SE13      30.04F FOG     WCI  27
OLATHE EXE     LGT RAIN  36  35  96 S8        30.04F FOG
SALINA         RAIN      41  38  89 S13       29.90F FOG
TOPEKA BILLARD LGT RAIN  35  34  96 E8        30.01F FOG
TOPEKA FORBES  LGT RAIN  37  35  92 SE10      29.99F FOG     WCI  30
$$



USA.gov is the U.S. government's official web portal to all federal, state and local government web resources and services.